This demonstration page uses our WeatherBlox Daily Observations layout. Learn more.

Left ArrowRight Arrow

Hourly Observations for June 9, 2017

Temp ( °F °C ) Dew Point ( °F °C ) Humidity (%) Winds ( mph kmh ) Pressure ( in mb ) Visibility ( mi km ) Precip ( " mm )
12:29 am 00:29 Clear with Nearby Thunderstorms 63 17.2 59 15 87 87 W 9 15 29.56 1001 10 16 0.00 0.00
12:53 am 00:53 Clear 62 16.7 58 14.4 86 86 WSW 8 13 29.57 1001 10 16 0.00 0.00
1:53 am 01:53 Clear 60 15.6 57 13.9 90 90 SW 9 15 29.57 1001 10 16 0.00 0.00
2:53 am 02:53 Clear 59 15 57 13.9 93 93 WSW 8 13 29.56 1001 10 16 0.00 0.00
3:53 am 03:53 Clear 59 15 57 13.9 93 93 WSW 13 20 29.58 1002 10 16 0.00 0.00
4:53 am 04:53 Clear 56 13.3 55 12.8 97 97 SW 6 9 29.58 1002 10 16 0.00 0.00
5:53 am 05:53 Sunny 56 13.3 54 12.2 93 93 SW 10 17 29.61 1003 10 16 0.00 0.00
6:53 am 06:53 Sunny 60 15.6 52 11.1 75 75 SW 10 17 29.61 1003 10 16 0.00 0.00
7:53 am 07:53 Sunny 61 16.1 50 10 67 67 WSW 9 15 29.62 1003 10 16 0.00 0.00
8:53 am 08:53 Sunny 63 17.2 50 10 63 63 SW 12 19 29.60 1002 10 16 0.00 0.00
9:53 am 09:53 Sunny 64 17.8 48 8.9 56 56 WSW 12 19 29.60 1002 10 16 0.00 0.00
10:53 am 10:53 Sunny 68 20 44 6.7 42 42 W 18 30 29.60 1003 10 16 0.00 0.00
11:53 am 11:53 Sunny 73 22.8 43 6.1 34 34 W 20 31 29.58 1002 10 16 0.00 0.00
12:53 pm 12:53 Sunny 76 24.4 39 3.9 26 26 W 20 31 29.55 1001 10 16 0.00 0.00
1:53 pm 13:53 Sunny 76 24.4 36 2.2 23 23 W 22 35 29.54 1000 10 16 0.00 0.00
2:53 pm 14:53 Mostly Sunny 78 25.6 30 -1.1 17 17 WSW 21 33 29.52 1000 10 16 0.00 0.00
3:53 pm 15:53 Sunny 76 24.4 33 0.6 21 21 WNW 18 30 29.51 999 10 16 0.00 0.00
4:53 pm 16:53 Sunny 75 23.9 28 -2.2 18 18 NW 22 35 29.51 999 10 16 0.00 0.00
5:53 pm 17:53 Sunny 71 21.7 28 -2.2 20 20 WNW 21 33 29.53 1000 10 16 0.00 0.00
6:53 pm 18:53 Sunny 69 20.6 28 -2.2 22 22 W 22 35 29.52 1000 10 16 0.00 0.00
7:53 pm 19:53 Sunny 70 21.1 30 -1.1 23 23 W 14 22 29.52 1000 10 16 0.00 0.00
8:53 pm 20:53 Sunny 66 18.9 31 -0.6 27 27 W 9 15 29.50 999 10 16 0.00 0.00
9:53 pm 21:53 Clear 61 16.1 32 0 34 34 W 8 13 29.52 1000 10 16 0.00 0.00
10:53 pm 22:53 Clear 56 13.3 34 1.1 44 44 SW 8 13 29.52 1000 10 16 0.00 0.00
11:53 pm 23:53 Clear 53 11.7 34 1.1 48 48 SW 8 13 29.54 1000 10 16 0.00 0.00

Powered by AerisWeather